Weather History for Carrollton, GA

Change the Weather History Date:

Thursday, December 13, 2012

  Actual Average Record
Temperature  
Mean Temperature 47 °F -  
Max Temperature 59 °F 57 °F 74 °F (1971)
Min Temperature 35 °F 34 °F 0 °F (1962)
Degree Days  
Heating Degree Days 18    
Moisture  
Dew Point 36 °F    
Average Humidity 73    
Maximum Humidity 100    
Minimum Humidity 42    
Precipitation  
Precipitation 0.00 in - - ()
Sea Level Pressure  
Sea Level Pressure 30.30 in    
Wind  
Wind Speed 3 mph (NNE)    
Max Wind Speed 8 mph    
Max Gust Speed -    
Visibility 10 miles    
Events      
Averages and records for this station are not official NWS values.
T = Trace of Precipitation, MM = Missing Value Source: NWS Daily Summary

Daily Weather History Graph

Daily Weather History Graph

Search for Another Location

Airport:

Trip Planner

Search our weather history database for the weather conditions in past years. The results will help you decide how hot, cold, wet, or windy it might be!

Date:

Astronomy

Dec. 13, 2012 Rise Set
Actual Time 7:36 AM EST 5:33 PM EST
Civil Twilight 7:09 AM EST 6:01 PM EST
Nautical Twilight 6:38 AM EST 6:32 PM EST
Astronomical Twilight 6:07 AM EST 7:02 PM EST
Moon 7:45 AM EST (12/13) 6:13 PM EST (12/13)
Length of Visible Light 10h 51m
Length of Day
9h 56m
New Moon, 0% of the Moon is Illuminated
Dec 13
New Moon
Dec 20
First Quarter
Dec 28
Full
Jan 4
Last Quarter
Jan 11
New

Hourly Weather History & Observations

Time (EST) Temp. Windchill Dew Point Humidity Pressure Visibility Wind Dir Wind Speed Gust Speed Precip Events Conditions
12:15 AM 41.0 °F 39.0 °F 33.8 °F 76% 30.24 in 10.0 mi North 3.5 mph - N/A   Mostly Cloudy
12:35 AM 41.0 °F 39.0 °F 33.8 °F 76% 30.23 in 10.0 mi NNE 3.5 mph - N/A   Clear
12:55 AM 39.2 °F - 33.8 °F 81% 30.24 in 10.0 mi Calm Calm - N/A   Scattered Clouds
1:15 AM 41.0 °F 39.0 °F 35.6 °F 81% 30.24 in 10.0 mi North 3.5 mph - N/A   Overcast
1:35 AM 42.8 °F 41.1 °F 35.6 °F 76% 30.24 in 10.0 mi North 3.5 mph - N/A   Overcast
1:55 AM 42.8 °F 41.1 °F 35.6 °F 76% 30.25 in 10.0 mi NNW 3.5 mph - N/A   Overcast
2:15 AM 42.8 °F 41.1 °F 37.4 °F 81% 30.26 in 10.0 mi North 3.5 mph - N/A   Overcast
2:35 AM 42.8 °F 39.3 °F 35.6 °F 76% 30.27 in 10.0 mi NW 5.8 mph - N/A   Overcast
2:55 AM 42.8 °F 38.6 °F 35.6 °F 76% 30.28 in 10.0 mi NNW 6.9 mph - N/A   Overcast
3:15 AM 42.8 °F 40.1 °F 35.6 °F 76% 30.28 in 10.0 mi North 4.6 mph - N/A   Overcast
3:35 AM 42.8 °F 40.1 °F 35.6 °F 76% 30.29 in 10.0 mi NW 4.6 mph - N/A   Overcast
3:55 AM 42.8 °F 39.3 °F 35.6 °F 76% 30.28 in 10.0 mi NNE 5.8 mph - N/A   Overcast
4:15 AM 41.0 °F 38.0 °F 33.8 °F 76% 30.28 in 10.0 mi NNE 4.6 mph - N/A   Overcast
4:35 AM 42.8 °F 41.1 °F 35.6 °F 76% 30.29 in 10.0 mi North 3.5 mph - N/A   Overcast
4:55 AM 41.0 °F 38.0 °F 33.8 °F 76% 30.28 in 10.0 mi North 4.6 mph - N/A   Overcast
5:15 AM 41.0 °F 38.0 °F 33.8 °F 76% 30.28 in 10.0 mi North 4.6 mph - N/A   Mostly Cloudy
5:35 AM 39.2 °F 37.0 °F 33.8 °F 81% 30.27 in 10.0 mi North 3.5 mph - N/A   Scattered Clouds
5:55 AM 37.4 °F 34.9 °F 33.8 °F 87% 30.28 in 10.0 mi North 3.5 mph - N/A   Clear
6:15 AM 37.4 °F 33.8 °F 33.8 °F 87% 30.28 in 10.0 mi North 4.6 mph - N/A   Clear
6:35 AM 37.4 °F 34.9 °F 33.8 °F 87% 30.30 in 10.0 mi North 3.5 mph - N/A   Clear
6:55 AM 35.6 °F - 33.8 °F 93% 30.30 in 10.0 mi Calm Calm - N/A   Clear
7:15 AM 35.6 °F - 33.8 °F 93% 30.31 in 10.0 mi Calm Calm - N/A   Clear
7:35 AM 35.6 °F 32.8 °F 33.8 °F 93% 30.31 in 10.0 mi North 3.5 mph - N/A   Clear
7:55 AM 35.6 °F - 33.8 °F 93% 30.32 in 10.0 mi Calm Calm - N/A   Clear
8:15 AM 37.4 °F 33.8 °F 35.6 °F 93% 30.32 in 10.0 mi NNE 4.6 mph - N/A   Clear
8:35 AM 41.0 °F 38.0 °F 35.6 °F 81% 30.33 in 10.0 mi NNE 4.6 mph - N/A   Clear
8:55 AM 42.8 °F 38.6 °F 35.6 °F 76% 30.34 in 10.0 mi North 6.9 mph - N/A   Clear
9:15 AM 42.8 °F 40.1 °F 35.6 °F 76% 30.34 in 10.0 mi North 4.6 mph - N/A   Clear
9:35 AM 44.6 °F 42.2 °F 35.6 °F 71% 30.34 in 10.0 mi ENE 4.6 mph - N/A   Clear
9:55 AM 44.6 °F 41.4 °F 35.6 °F 71% 30.35 in 10.0 mi NNE 5.8 mph - N/A   Clear
10:15 AM 46.4 °F 44.3 °F 35.6 °F 66% 30.35 in 10.0 mi NE 4.6 mph - N/A   Clear
10:35 AM 48.2 °F - 37.4 °F 66% 30.36 in 10.0 mi NE 4.6 mph - N/A   Clear
10:55 AM 50.0 °F - 37.4 °F 62% 30.36 in 10.0 mi Calm Calm - N/A   Clear
11:15 AM 50.0 °F - 37.4 °F 62% 30.35 in 10.0 mi ESE 3.5 mph - N/A   Clear
11:35 AM 51.8 °F - 37.4 °F 58% 30.35 in 10.0 mi ENE 4.6 mph - N/A   Clear
11:55 AM 53.6 °F - 37.4 °F 54% 30.34 in 10.0 mi East 5.8 mph - N/A   Clear
12:15 PM 53.6 °F - 37.4 °F 54% 30.33 in 10.0 mi SE 4.6 mph - N/A   Clear
12:35 PM 53.6 °F - 37.4 °F 54% 30.32 in 10.0 mi East 6.9 mph - N/A   Clear
12:55 PM 55.4 °F - 37.4 °F 51% 30.31 in 10.0 mi East 4.6 mph - N/A   Clear
1:15 PM 55.4 °F - 37.4 °F 51% 30.30 in 10.0 mi East 5.8 mph - N/A   Clear
1:35 PM 55.4 °F - 37.4 °F 51% 30.29 in 10.0 mi ESE 6.9 mph - N/A   Clear
1:55 PM 55.4 °F - 37.4 °F 51% 30.29 in 10.0 mi ENE 4.6 mph - N/A   Clear
2:15 PM 57.2 °F - 37.4 °F 48% 30.29 in 10.0 mi East 8.1 mph - N/A   Clear
2:35 PM 57.2 °F - 37.4 °F 48% 30.29 in 10.0 mi East 5.8 mph - N/A   Clear
2:55 PM 59.0 °F - 37.4 °F 45% 30.28 in 10.0 mi NNE 5.8 mph - N/A   Clear
3:15 PM 59.0 °F - 35.6 °F 42% 30.28 in 10.0 mi NNE 5.8 mph - N/A   Clear
3:35 PM 59.0 °F - 35.6 °F 42% 30.28 in 10.0 mi NE 4.6 mph - N/A   Clear
3:55 PM 57.2 °F - 35.6 °F 44% 30.28 in 10.0 mi NE 5.8 mph - N/A   Clear
4:15 PM 57.2 °F - 35.6 °F 44% 30.28 in 10.0 mi ENE 3.5 mph - N/A   Clear
4:35 PM 57.2 °F - 35.6 °F 44% 30.28 in 10.0 mi Calm Calm - N/A   Clear
4:55 PM 55.4 °F - 35.6 °F 47% 30.28 in 10.0 mi Calm Calm - N/A   Clear
5:35 PM 51.8 °F - 37.4 °F 58% 30.28 in 10.0 mi Calm Calm - N/A   Clear
6:35 PM 44.6 °F - 37.4 °F 76% 30.28 in 10.0 mi Calm Calm - N/A   Clear
7:15 PM 46.4 °F 45.2 °F 37.4 °F 71% 30.30 in 10.0 mi North 3.5 mph - N/A   Clear
7:55 PM 42.8 °F - 37.4 °F 81% 30.31 in 10.0 mi Calm Calm - N/A   Clear
8:15 PM 42.8 °F - 37.4 °F 81% 30.31 in 10.0 mi Calm Calm - N/A   Clear
8:55 PM 42.8 °F - 37.4 °F 81% 30.32 in 10.0 mi Calm Calm - N/A   Clear
9:15 PM 41.0 °F - 37.4 °F 87% 30.32 in 10.0 mi Calm Calm - N/A   Clear
9:35 PM 41.0 °F - 35.6 °F 81% 30.32 in 10.0 mi Calm Calm - N/A   Clear
9:55 PM 37.4 °F - 35.6 °F 93% 30.32 in 10.0 mi Calm Calm - N/A   Clear
10:15 PM 39.2 °F - 37.4 °F 93% 30.33 in 10.0 mi Calm Calm - N/A   Clear
10:35 PM 37.4 °F - 37.4 °F 100% 30.33 in 10.0 mi Calm Calm - N/A   Clear
10:55 PM 37.4 °F - 37.4 °F 100% 30.32 in 10.0 mi Calm Calm - N/A   Clear
11:15 PM 37.4 °F - 35.6 °F 93% 30.32 in 10.0 mi Calm Calm - N/A   Clear
11:35 PM 35.6 °F - 35.6 °F 100% 30.32 in 10.0 mi Calm Calm - N/A   Clear
11:55 PM 35.6 °F - 35.6 °F 100% 30.32 in 10.0 mi Calm Calm - N/A   Clear